Home > Weather > Hamar > Past weeks

Flag for Norway Past Weather in Hamar, Norway — Yesterday and Last 2 Weeks

Now
50 °F

Cool.


Feels Like: 50 °F
Forecast: 47 / 59 °F
Wind: 1 mph from Southwest

Location: Haugedalshogda

Current Time: May 28, 2016 at 12:14:58 AM

Latest Report: May 27, 2016 at 11:00 PM


Visibility: N/A

Pressure: 30.25 "Hg

Humidity: 89%

Dew Point: 47 °F

Location of HamarLocation

Past Weather in Hamar — Graph

°F

Hamar Temperature Yesterday

Maximum temperature yesterday: 67 °F (at 3:00 PM)
Minimum temperature yesterday: 41 °F (at 6:00 AM)
Average temperature yesterday: 54 °F

High & Low Weather Summary for the Past Weeks

 TemperatureHumidityPressure
High67 °F (May 27, 3:00 PM)100% (May 23, 4:00 AM)30.27 "Hg (May 23, 4:00 AM)
Low22 °F (May 17, 5:00 AM)20% (May 16, 6:00 PM)29.65 "Hg (May 17, 8:00 PM)
Average49 °F67%29.90 "Hg
* Reported May 12 11:00 PM — May 27 11:00 PM, Hamar, Weather by CustomWeather, © 2016

Note: Actual official high and low records may vary slightly from our data, if they occured in-between our weather recording intervals... More about our weather records

Advertising

Hamar Weather History for the Previous 24 Hours

Scroll right to see more
 ConditionsComfort  
Time TempWeatherWind HumidityBarometerVisibility
11:00 PM
Fri, May 27
50 °FCool.1 mph89%30.25 "HgN/A
10:00 PM52 °FCool.1 mph84%30.24 "HgN/A
9:00 PM53 °FCool.2 mph84%30.23 "HgN/A
8:00 PM54 °FCool.No wind76%30.22 "HgN/A
7:00 PM58 °FCool.2 mph61%30.21 "HgN/A
6:00 PM61 °FRefreshingly cool.7 mph50%30.19 "HgN/A
5:00 PM64 °FMild.7 mph43%30.18 "HgN/A
4:00 PM64 °FMild.8 mph43%30.17 "HgN/A
3:00 PM67 °FMild.7 mph36%30.15 "HgN/A
2:00 PM67 °FMild.6 mph30%30.14 "HgN/A
1:00 PM65 °FMild.3 mph30%30.15 "HgN/A
12:00 PM63 °FMild.5 mph33%30.16 "HgN/A
11:00 AM62 °FMild.5 mph35%30.16 "HgN/A
10:00 AM61 °FRefreshingly cool.3 mph38%30.18 "HgN/A
9:00 AM55 °FRefreshingly cool.1 mph57%30.19 "HgN/A
8:00 AM52 °FCool.2 mph63%30.20 "HgN/A
7:00 AM49 °FCool.1 mph73%30.20 "HgN/A
6:00 AM41 °FQuite cool.1 mph89%30.21 "HgN/A
5:00 AM42 °FQuite cool.1 mph87%30.20 "HgN/A
4:00 AM45 °FQuite cool.3 mph78%30.19 "HgN/A
3:00 AM45 °FQuite cool.1 mph80%30.18 "HgN/A
2:00 AM44 °FQuite cool.1 mph88%30.18 "HgN/A
1:00 AM44 °FQuite cool.1 mph86%30.18 "HgN/A
12:00 AM49 °FCool.2 mph76%30.17 "HgN/A
Weather by CustomWeather, © 2016

See weather overviewHow to use our weather pages